Theta_e
312 312 312 312 313 313 313 313 313 313 312 312 312 312 311 312 312 312 311 311 311 311 311 312 312 312 312 313 312 313 312 305 303 303 303 309 313 317 320 319 322 319 323 305 302 300 299 302 303 307 305 305 304 302 305 306 306 305 299 296 294 298 297 302 301 303 306 304 306 308 310 309 307 312 314 316 313 312 313 317 323 329 331 338 339 338 337 335
313 313 312 312 312 312 312 312 312 312 313 312 312 311 312 311 312 312 312 312 311 311 312 312 312 312 312 312 313 312 309 304 301 303 303 315 320 319 318 321 321 318 317 302 300 299 298 300 303 305 303 300 307 301 306 302 308 301 297 297 295 298 301 305 306 307 305 305 307 309 311 309 309 310 313 310 310 310 309 315 323 329 335 337 337 336 335 334
313 313 313 313 312 312 312 312 312 312 312 312 311 312 312 312 311 311 311 311 311 312 311 312 312 312 312 312 312 312 306 302 302 302 310 320 320 319 318 318 322 319 311 303 303 303 301 302 303 304 303 300 302 300 303 302 305 304 299 296 297 303 303 306 307 307 309 309 307 308 310 310 310 311 314 310 309 310 306 308 323 329 330 333 334 334 333 332
312 312 312 312 313 312 312 312 312 312 312 312 312 312 312 312 311 311 311 311 311 311 311 311 312 312 312 311 312 309 304 301 298 305 309 318 319 318 317 318 319 318 309 306 306 305 305 305 304 304 304 300 301 303 300 303 301 303 300 297 299 303 302 305 308 308 309 309 309 309 310 309 311 312 312 311 309 308 307 309 312 329 331 333 334 333 333 333
312 312 312 312 312 312 312 312 312 312 312 312 312 312 312 312 311 312 311 311 311 311 311 311 311 312 311 312 311 307 300 294 302 308 315 318 320 317 318 320 321 314 309 307 306 304 304 302 303 303 303 298 301 301 300 303 305 303 300 302 303 303 302 306 308 309 308 309 307 309 307 307 313 312 311 311 306 303 307 310 312 329 334 334 333 333 334 334
310 311 311 312 312 312 312 312 312 312 312 312 312 313 312 313 312 311 311 311 311 311 311 311 311 311 311 311 307 304 299 284 306 308 316 321 317 319 319 321 322 316 309 306 305 304 301 301 301 298 299 300 299 297 300 302 305 297 301 302 304 305 303 306 307 308 309 308 308 307 309 311 310 310 311 310 308 309 314 313 314 326 334 336 336 335 333 334
310 311 312 312 312 312 312 312 312 312 312 312 312 313 312 312 313 312 312 311 311 311 311 311 311 311 311 310 304 301 296 299 306 313 321 319 318 320 321 323 322 314 308 304 302 300 300 299 300 299 299 300 301 300 301 302 304 301 298 302 303 305 304 307 306 307 307 308 307 309 312 309 309 306 311 309 312 313 314 314 313 326 331 334 334 335 334 334
312 312 312 312 312 312 312 312 312 312 312 312 312 312 312 312 312 312 312 311 311 311 310 310 310 310 310 304 300 297 297 298 308 311 324 318 319 319 322 316 309 305 302 299 300 299 300 298 298 301 298 297 300 301 302 301 302 300 299 302 303 305 305 306 307 307 307 306 309 309 307 308 310 309 310 308 310 311 312 311 313 327 332 332 332 334 335 335
312 312 312 312 312 312 312 312 312 312 312 312 312 312 312 312 312 311 311 312 311 311 310 310 310 310 310 303 297 294 295 304 309 310 318 316 315 312 313 305 304 301 300 300 300 301 299 298 300 302 296 298 302 300 301 299 296 301 301 303 303 304 305 306 306 306 307 308 308 306 306 309 310 312 309 310 310 310 311 312 313 327 329 329 330 334 335 336
311 311 312 311 311 311 311 311 310 310 310 311 311 311 311 311 311 312 311 311 311 310 311 310 309 309 304 300 297 289 300 310 310 313 312 314 310 304 303 302 302 300 298 298 299 299 298 299 300 304 304 302 303 299 302 300 298 303 302 303 303 303 304 306 305 306 307 307 308 305 305 306 311 310 305 312 312 310 311 311 312 323 323 327 331 334 336 337
310 310 310 310 310 310 310 310 310 310 310 310 310 310 310 310 310 311 311 311 311 311 310 310 309 308 300 300 293 289 305 304 307 305 306 305 303 301 301 303 302 299 299 299 299 300 300 300 302 302 302 300 302 300 300 300 303 302 302 302 302 303 304 305 305 306 307 305 307 307 305 306 308 309 306 309 314 314 310 310 311 316 318 325 331 334 335 338
310 310 310 310 310 310 310 310 309 310 310 310 310 310 310 310 310 311 310 311 311 311 311 310 310 305 302 297 293 294 307 307 307 306 306 305 303 303 302 302 301 300 298 296 299 301 302 301 301 299 294 303 297 302 300 304 302 301 302 297 300 302 301 303 303 304 306 304 307 307 304 302 304 303 308 309 312 314 313 310 310 310 318 325 329 330 333 338
309 309 309 309 309 309 310 309 309 309 309 309 309 309 309 310 310 310 311 311 311 311 312 311 309 306 299 290 295 304 307 307 305 305 306 306 304 303 303 303 302 301 300 298 298 301 302 301 300 296 299 298 297 294 301 303 302 301 299 298 297 298 298 302 304 305 304 305 307 306 294 298 302 305 307 313 313 315 312 310 310 309 314 322 326 328 335 340
309 309 309 309 309 309 309 309 309 309 309 309 309 309 309 309 310 310 311 311 312 312 312 311 308 304 298 293 301 305 307 307 307 305 303 305 302 302 303 303 303 302 302 300 300 300 301 301 300 298 301 297 295 304 301 301 302 294 297 298 293 293 293 301 303 303 301 306 305 305 294 297 301 305 307 312 315 314 309 309 307 310 316 323 328 332 338 340
309 309 309 308 309 309 308 309 309 309 309 309 309 309 308 308 309 310 311 311 311 312 312 311 307 300 293 295 305 307 316 311 305 304 306 302 300 300 300 302 301 302 301 302 301 302 302 301 299 296 293 301 301 298 294 295 296 296 291 289 293 291 294 299 303 303 299 303 306 303 295 296 299 303 307 309 312 314 309 307 307 311 320 326 330 333 337 339
309 308 308 308 308 308 308 308 308 309 309 309 308 308 308 308 309 310 311 310 312 312 311 304 301 299 294 290 299 316 309 303 304 308 308 306 303 299 300 300 301 301 301 301 303 303 302 301 295 294 295 298 295 292 291 291 292 294 291 289 290 292 293 296 301 303 303 303 304 302 295 298 299 303 305 308 311 314 310 308 306 311 315 325 328 331 335 337
308 308 308 308 307 307 308 308 308 308 309 308 308 308 308 309 310 310 311 311 310 310 308 298 301 301 289 302 309 300 298 303 308 307 307 306 303 301 300 299 298 299 301 302 302 301 300 296 297 295 296 291 293 293 288 286 286 289 292 289 292 291 293 291 299 302 302 302 299 301 298 298 300 303 305 308 309 312 308 307 308 312 312 316 324 328 333 336
308 308 307 307 307 307 307 307 308 308 308 307 307 307 305 309 310 309 308 310 310 307 304 306 303 296 293 301 294 298 303 302 302 302 303 303 303 301 299 297 298 298 298 296 299 296 298 292 294 286 290 290 291 289 286 283 286 287 288 288 290 293 294 293 293 299 301 301 298 299 298 299 301 301 304 307 308 309 307 307 309 310 310 310 314 326 329 335
307 307 307 307 307 307 307 307 308 308 307 307 307 308 309 311 309 306 304 305 301 296 292 293 294 284 284 294 301 302 302 303 303 302 299 301 302 301 300 299 297 294 291 290 291 294 294 291 292 286 284 286 288 289 288 290 293 291 291 290 290 290 291 293 297 300 301 298 297 297 296 298 300 301 303 305 308 307 307 308 308 310 310 310 310 322 327 333
307 306 306 306 306 307 307 307 307 307 307 305 303 302 303 297 296 298 302 302 298 297 297 298 299 298 297 298 298 303 306 305 298 299 300 302 300 298 296 297 295 294 290 285 289 291 294 285 283 283 285 288 291 292 292 294 295 295 294 292 291 291 293 296 297 300 301 298 297 297 298 298 299 301 303 304 305 307 306 305 308 309 309 310 310 314 325 330
306 306 306 306 306 306 307 306 307 307 307 304 302 299 293 294 289 286 292 294 297 298 296 297 298 298 297 300 302 300 296 297 299 298 299 304 300 296 293 293 290 286 287 289 288 294 292 284 284 287 289 290 291 293 293 293 294 293 292 292 290 292 290 295 297 300 302 297 294 298 297 297 299 299 301 303 303 302 305 305 307 307 309 310 310 310 323 328
306 306 306 306 306 306 306 307 307 307 307 304 302 299 299 299 301 301 297 288 295 298 298 298 300 297 301 300 302 302 300 294 295 296 301 302 298 291 293 291 288 284 288 289 288 286 284 283 287 290 292 292 292 292 293 292 291 292 291 291 290 291 294 296 298 300 300 298 294 296 296 297 298 300 301 302 302 303 304 307 309 308 308 309 310 310 316 328
305 305 305 306 306 306 306 307 306 307 302 301 301 300 300 303 305 304 300 294 291 298 297 297 295 295 296 301 302 303 295 292 291 295 297 299 294 293 292 288 287 287 288 288 283 283 281 284 289 292 292 291 291 292 291 292 292 290 290 289 287 292 291 288 295 298 299 298 295 296 295 296 299 300 301 303 303 304 306 310 310 310 309 309 311 314 326 327
305 305 305 305 306 305 306 306 305 304 302 302 301 301 304 305 304 304 297 288 287 293 296 297 297 297 296 295 301 299 295 293 294 293 301 298 291 294 291 290 288 288 285 287 286 284 283 288 293 292 292 291 289 290 290 289 287 290 290 290 290 291 292 292 292 296 299 299 299 297 295 293 296 297 298 302 304 304 305 309 310 310 311 311 312 315 328 327
305 305 305 305 305 305 305 305 300 301 303 303 301 304 305 305 305 304 294 290 289 290 301 299 300 299 300 306 302 295 296 296 296 298 300 298 294 292 289 293 290 285 286 288 287 285 285 290 292 291 291 290 289 288 289 289 286 288 291 291 292 293 293 293 294 294 292 292 297 295 287 289 293 296 298 299 301 302 304 305 307 308 308 310 310 311 326 328
305 305 305 305 305 305 305 299 299 302 301 300 302 305 306 305 306 304 294 284 279 289 296 289 300 293 300 296 298 296 295 289 296 297 300 300 301 294 292 288 290 284 287 287 286 286 286 290 290 289 290 290 289 288 290 291 286 286 288 294 293 293 293 293 293 292 287 286 294 297 288 283 291 294 296 298 299 299 302 302 304 307 309 308 309 310 325 327
305 304 305 305 305 305 298 295 302 302 298 300 305 307 306 306 307 302 289 281 277 291 287 292 294 293 297 297 297 298 281 286 299 300 298 301 296 299 288 286 288 290 290 291 285 282 289 288 288 289 288 288 288 286 290 291 287 285 293 294 293 292 291 292 292 292 289 294 296 296 293 286 285 292 298 299 297 299 300 300 302 305 308 309 309 310 321 327
304 305 305 305 305 305 299 300 300 299 300 304 307 306 306 306 306 301 285 272 273 294 287 290 294 302 297 297 298 291 291 296 289 293 298 300 298 294 290 287 286 286 289 287 276 286 288 287 287 287 287 286 286 290 292 292 289 289 293 294 292 292 292 293 292 290 291 291 286 292 295 288 286 290 298 299 296 296 298 300 301 305 308 309 309 310 318 327
305 305 305 305 305 306 305 300 300 298 304 306 305 305 308 306 302 289 280 271 288 289 303 290 304 297 297 298 293 293 293 295 287 294 299 301 301 295 286 289 289 288 289 288 282 286 289 289 289 289 287 285 289 292 293 293 289 292 295 295 295 295 294 293 291 291 290 288 284 289 293 286 286 291 293 297 297 296 297 300 301 304 308 309 309 309 318 326
305 305 305 305 304 305 303 303 301 307 308 309 308 307 307 302 291 281 277 271 292 282 293 294 294 290 295 290 291 294 291 293 295 296 297 294 296 297 295 296 290 288 286 288 287 287 289 294 295 291 288 290 290 292 294 294 294 296 295 292 292 293 292 293 292 291 288 282 285 291 293 290 284 290 292 292 295 298 298 299 301 304 309 310 310 309 325 326
305 305 305 306 298 304 305 300 304 308 308 308 307 305 300 295 284 277 272 279 291 288 294 292 288 295 290 288 285 292 291 292 292 294 290 295 293 294 293 288 292 285 284 284 284 287 288 289 289 290 294 293 293 290 294 295 295 294 291 289 288 288 291 289 289 290 282 280 288 292 292 292 283 287 294 298 299 299 300 298 300 301 305 310 310 312 326 329
305 305 306 303 303 306 300 299 305 308 308 308 305 299 293 280 285 274 274 295 279 284 286 286 291 290 289 291 289 288 287 291 293 291 288 289 288 285 286 280 283 276 276 278 278 285 283 285 289 290 294 291 290 288 289 293 294 292 290 288 283 280 283 281 284 280 280 280 288 292 293 289 288 289 294 298 300 300 300 301 301 302 303 308 310 313 324 329
305 305 306 305 306 302 305 307 310 308 307 306 301 295 285 279 273 281 280 286 278 288 285 293 288 289 289 288 286 289 292 285 293 291 291 291 287 287 289 287 288 282 274 280 279 279 280 287 287 288 290 292 291 285 285 285 290 289 287 286 283 279 279 277 281 282 283 287 292 291 293 287 290 293 297 297 300 302 301 301 301 301 303 306 310 313 321 325
305 305 301 305 306 307 309 313 311 309 305 304 295 290 284 277 276 289 284 285 284 293 293 289 290 290 289 284 287 290 283 290 291 289 290 287 287 283 286 289 289 286 282 282 277 278 272 275 282 286 283 292 292 290 289 289 289 289 291 289 286 285 282 278 280 278 280 283 287 293 288 283 286 285 299 299 299 300 301 302 302 303 304 309 312 312 319 320
304 304 304 306 307 309 311 311 310 308 304 299 292 285 278 278 281 280 282 284 289 291 289 292 288 286 284 287 291 290 287 282 290 289 286 285 282 283 283 285 289 289 286 278 282 280 279 278 285 291 290 292 290 294 295 292 290 291 292 292 287 285 289 282 284 284 284 283 283 286 285 289 289 295 300 299 300 301 301 302 303 304 303 310 311 312 314 318
303 304 308 304 308 311 311 312 309 307 300 294 287 282 279 283 279 287 285 293 291 286 287 289 287 283 281 282 288 288 293 284 288 287 285 286 287 284 288 288 286 288 283 278 283 277 281 278 288 290 292 290 291 294 294 295 282 288 290 285 288 294 292 285 286 292 286 284 281 286 289 291 295 296 297 299 298 299 301 301 302 303 303 309 310 311 312 316
299 302 304 309 309 310 310 309 308 304 300 293 285 280 285 287 293 289 293 288 289 291 287 280 281 280 277 278 282 287 287 289 287 285 279 286 282 287 286 288 291 288 288 284 280 287 278 280 288 288 287 291 293 294 295 296 296 291 284 288 294 297 295 288 281 283 281 279 281 288 284 285 288 282 294 296 296 297 298 299 301 302 303 307 311 311 312 316
298 300 303 307 309 309 310 309 306 302 297 291 283 286 291 286 295 293 296 294 292 292 283 282 283 287 280 282 281 286 289 284 283 285 281 285 280 291 288 287 291 289 289 289 283 285 287 276 284 290 290 293 294 293 291 295 297 293 290 297 288 283 283 288 284 279 279 279 280 285 287 286 287 288 292 293 295 296 298 299 300 301 302 306 310 312 312 316
299 298 296 306 309 309 308 309 304 297 291 286 285 284 291 292 296 296 296 295 295 291 285 284 279 284 284 283 285 288 288 281 286 283 277 284 278 289 288 290 288 291 290 290 285 287 290 280 282 290 290 296 292 291 281 287 294 296 297 292 295 291 288 284 286 290 287 280 281 281 286 282 291 290 293 294 296 297 298 299 300 301 305 308 310 312 313 314
297 296 296 308 309 309 308 306 299 296 290 282 285 287 293 290 294 298 297 295 290 287 285 284 288 284 286 286 288 284 289 288 286 284 284 285 282 291 288 293 290 291 292 292 290 292 285 290 278 286 293 292 284 288 286 287 286 289 289 288 291 291 298 292 293 288 283 281 280 279 280 284 290 295 296 296 297 299 299 299 301 303 308 310 312 313 314 314
301 296 298 310 308 308 306 300 293 289 287 290 291 290 292 291 295 296 295 297 296 298 290 289 289 285 287 286 285 290 287 287 288 283 285 286 286 281 292 291 292 290 293 291 289 291 283 285 279 284 285 284 287 294 292 292 292 291 289 287 289 288 286 283 282 292 289 285 279 280 278 286 294 303 301 298 299 300 301 301 304 304 310 311 312 313 313 314
295 289 297 310 308 307 300 290 291 294 290 288 287 292 291 299 295 296 296 295 294 292 298 293 292 290 290 289 289 289 288 286 288 287 287 284 289 288 292 294 293 294 290 286 288 292 291 289 285 280 283 285 290 294 297 296 295 294 292 290 292 291 291 286 280 284 289 289 291 286 282 283 295 299 299 301 301 302 303 304 305 306 310 311 312 313 313 316
295 293 308 309 308 306 297 289 292 289 289 293 298 296 297 295 295 297 295 296 293 292 292 292 291 290 292 291 291 290 290 287 288 286 289 288 289 292 295 294 294 293 293 291 292 295 298 287 281 284 288 291 293 296 297 297 296 293 292 293 292 289 291 289 289 290 286 287 284 283 281 282 295 303 301 302 303 304 303 306 307 306 309 312 312 312 312 316
294 294 300 310 310 305 293 283 283 284 289 294 294 293 297 296 295 295 295 296 291 291 290 291 292 295 291 294 292 289 293 283 290 290 287 291 290 296 295 294 295 292 293 290 288 294 285 288 287 280 280 282 286 290 292 297 294 289 288 292 293 293 293 293 293 294 284 287 289 284 279 283 295 303 303 304 303 302 304 307 307 306 306 309 312 312 315 321
293 297 299 303 307 302 289 291 286 286 288 290 290 290 291 294 298 296 296 295 295 292 291 290 293 293 288 292 292 293 294 290 287 291 291 291 294 297 295 295 296 293 295 298 301 297 289 287 285 279 275 273 273 272 276 281 286 289 292 292 293 292 291 289 283 287 282 287 291 285 283 289 296 300 301 302 302 302 304 308 313 306 309 308 312 315 320 325
292 283 295 298 300 299 297 299 294 289 288 287 286 290 292 290 295 299 299 296 295 294 292 292 293 293 290 290 289 291 291 294 290 289 290 289 292 296 295 295 295 295 299 303 300 296 289 292 288 285 282 280 282 285 291 291 289 285 289 291 291 292 293 292 291 286 284 288 287 292 294 291 295 298 299 301 302 302 307 310 312 313 314 311 315 320 324 326
295 290 286 284 292 295 293 295 291 293 287 292 285 290 288 291 293 295 300 293 294 290 290 291 291 287 290 288 286 287 291 291 294 293 292 292 294 296 299 298 295 297 303 299 300 294 291 286 289 289 288 288 289 290 292 292 288 290 289 290 292 291 292 291 287 285 294 288 284 293 298 295 295 297 299 301 304 303 309 310 313 315 316 315 314 322 323 326
286 290 293 293 287 284 285 286 291 288 291 291 288 293 290 291 292 289 295 297 297 294 283 288 285 289 288 286 286 283 289 290 291 288 294 293 294 296 294 298 293 299 302 296 299 293 291 283 290 290 289 291 291 291 293 292 291 291 291 290 290 292 292 290 290 292 295 286 284 294 297 295 295 298 302 304 305 307 307 309 312 315 317 317 317 320 323 324
293 291 293 294 285 287 285 288 291 290 290 292 290 293 290 291 290 293 291 292 297 294 290 284 288 289 289 289 289 287 289 284 282 293 291 292 293 292 290 294 294 298 294 294 293 294 290 285 292 291 289 290 291 291 292 291 291 291 291 291 292 291 291 292 292 294 293 293 297 298 297 298 299 303 304 306 306 307 307 308 310 314 316 316 317 318 319 322
287 287 286 291 290 288 290 291 291 291 289 293 288 293 292 290 289 291 293 292 289 293 294 289 289 294 290 289 291 287 290 291 290 286 293 293 291 294 292 293 291 295 292 291 296 297 291 284 292 291 287 288 291 292 292 292 291 289 291 292 292 291 292 292 293 295 297 295 298 299 297 295 300 303 305 305 305 306 305 304 306 309 314 315 316 316 317 319
293 295 293 287 284 287 290 290 288 289 287 290 288 291 291 291 289 291 291 296 295 292 295 293 296 292 290 289 288 288 293 294 293 292 294 295 289 296 291 293 298 293 295 290 293 296 293 286 293 289 283 285 291 291 292 292 292 291 290 290 291 291 289 291 289 295 294 294 296 295 293 294 298 302 303 305 305 304 304 302 304 306 309 312 314 314 316 318
296 297 296 291 283 288 286 289 289 288 283 290 291 291 290 290 291 292 288 297 297 296 295 298 297 295 292 287 286 290 294 297 296 296 296 298 301 300 299 298 298 295 292 291 293 289 289 287 283 283 282 282 290 291 290 290 288 285 286 289 291 293 294 295 295 295 296 298 291 286 291 297 301 303 302 303 305 304 303 304 303 306 307 309 313 314 315 317
Wind_Speed
15 15 16 16 16 16 16 16 16 16 16 16 16 17 17 17 17 17 17 18 19 20 21 21 19 20 21 21 22 21 22 11 17 13 10 7 5 5 4 4 4 4 6 6 7 6 7 7 6 7 6 3 3 5 3 7 3 3 5 7 10 9 13 9 13 10 10 10 13 13 10 14 18 13 14 13 6 3 12 12 10 11 8 14 16 17 17 15
16 16 16 16 16 16 16 16 16 16 16 16 16 17 17 17 17 18 18 19 19 20 20 21 22 21 21 21 21 20 17 14 14 14 16 5 6 6 3 3 4 4 6 3 4 6 7 8 6 6 6 4 4 4 6 3 7 7 5 8 13 8 9 7 10 14 12 15 19 14 13 5 6 6 3 12 11 3 5 13 17 14 13 16 18 18 16 16
17 17 17 16 16 16 17 17 16 16 17 17 18 18 18 18 18 18 18 18 20 19 20 20 21 22 21 22 22 20 15 13 11 11 3 8 8 6 4 2 3 5 4 4 4 5 7 10 12 11 5 6 6 6 9 6 7 10 8 11 12 7 5 13 12 15 18 15 17 16 17 13 15 7 8 11 15 6 5 10 13 17 16 17 17 17 17 15
17 17 18 18 18 17 17 18 17 18 17 17 17 17 17 18 19 19 19 19 19 19 19 21 21 22 23 22 21 16 11 11 6 2 2 8 7 5 3 0 2 4 4 6 6 7 8 10 11 9 6 9 6 10 9 8 9 7 11 12 7 7 8 10 14 16 15 14 13 10 7 16 11 16 6 12 16 15 4 7 11 16 18 17 17 18 16 15
17 17 16 16 16 15 15 15 16 16 16 16 17 18 17 17 17 17 18 19 19 20 21 20 20 21 23 24 22 11 10 3 1 3 5 8 6 4 4 3 4 2 5 7 9 8 8 9 9 7 6 5 8 8 12 11 10 5 13 13 10 6 10 10 16 21 15 10 4 18 12 8 8 21 17 19 14 8 6 4 8 18 21 22 19 17 16 16
15 15 15 15 15 16 16 16 17 17 17 17 18 18 18 18 18 17 17 18 18 19 20 21 21 19 20 21 17 8 3 0 4 5 7 8 6 6 6 5 7 3 4 6 6 7 7 6 7 6 3 6 8 12 9 14 10 12 11 13 13 13 10 8 14 14 18 10 18 8 14 16 19 15 12 10 12 7 7 6 10 19 18 19 17 16 14 14
14 15 16 17 17 17 18 18 18 18 18 19 18 19 19 19 18 18 18 17 18 18 19 20 19 20 20 18 14 8 4 8 5 3 11 9 9 8 9 7 6 4 5 7 7 6 4 7 7 8 8 8 9 10 13 12 15 13 13 12 15 12 18 15 15 11 10 16 16 15 10 8 7 13 7 12 15 14 7 9 5 21 16 19 21 20 20 16
16 17 17 18 18 18 18 18 19 19 19 19 18 19 19 19 18 18 18 18 17 17 18 19 18 19 19 12 11 4 6 9 4 8 13 11 9 9 9 6 5 5 6 7 6 7 6 9 9 6 9 9 3 12 8 13 15 18 17 13 12 16 15 14 17 18 16 10 10 12 15 17 17 21 13 13 11 5 8 5 7 22 19 17 16 16 17 16
18 18 18 18 18 18 18 19 19 19 19 20 19 19 19 19 19 18 19 18 17 16 17 17 18 17 15 8 6 8 8 4 10 10 11 9 8 8 6 3 3 4 4 6 7 9 7 5 8 8 6 9 12 13 11 9 13 16 20 17 11 13 18 17 15 16 20 14 13 12 19 11 24 20 19 17 14 5 6 8 8 19 21 17 18 20 15 16
19 19 18 18 19 19 19 19 19 19 20 20 19 19 19 20 19 18 19 18 17 17 17 17 16 14 11 8 7 3 8 9 6 10 11 10 10 8 5 6 6 7 6 6 7 7 7 6 10 6 11 15 12 13 8 15 10 12 19 15 20 18 11 17 23 17 15 19 14 14 15 15 15 15 11 15 12 6 7 10 8 20 18 18 15 15 17 17
19 19 19 19 19 19 20 20 20 20 20 20 20 20 20 19 20 20 18 19 18 18 16 16 14 11 8 7 5 9 6 4 6 5 6 5 5 5 5 3 3 6 6 8 8 7 8 9 9 7 8 7 7 12 13 9 11 17 12 17 17 15 22 16 14 24 17 12 15 15 18 15 11 16 14 10 16 11 10 5 8 13 12 14 13 15 12 15
19 19 19 19 19 20 21 21 22 22 22 22 22 22 21 21 21 20 19 18 18 17 15 13 14 6 8 9 10 12 9 11 11 9 10 9 5 6 5 4 4 6 7 9 8 6 6 8 9 9 7 9 7 6 12 11 16 13 16 15 14 20 16 19 23 16 16 17 16 14 16 16 13 13 12 13 9 16 15 12 7 13 17 18 17 15 12 12
19 20 20 20 21 21 21 23 23 23 23 24 24 23 23 22 22 21 20 19 16 15 14 13 9 6 7 11 12 18 20 17 17 17 13 10 5 4 5 6 7 6 7 8 8 7 8 7 8 12 9 11 8 7 7 16 13 14 13 10 14 12 17 20 14 21 20 10 17 16 15 13 17 15 13 6 6 6 13 14 8 6 10 17 16 14 13 12
20 20 20 21 22 22 22 22 23 23 25 26 25 26 24 24 23 22 21 20 19 17 14 12 5 6 6 11 6 11 14 13 15 15 12 8 6 7 7 7 9 8 6 9 10 7 10 7 9 11 9 11 8 7 12 9 8 12 11 9 9 13 13 13 19 17 22 16 14 12 14 13 15 19 15 7 7 10 13 14 7 6 9 13 12 12 15 15
19 19 20 21 21 22 23 24 24 25 25 26 27 27 27 27 24 22 22 20 17 12 12 9 5 5 5 9 10 23 30 15 12 14 12 9 9 10 11 10 10 10 10 10 7 6 7 9 8 8 7 5 8 11 10 8 6 7 10 14 10 12 13 19 14 20 21 12 20 17 12 13 10 10 15 14 8 9 12 11 10 5 15 14 10 11 12 12
19 20 21 21 22 22 23 24 24 25 25 26 28 28 27 26 24 21 20 18 19 15 8 6 6 6 6 11 6 3 3 8 12 17 12 11 8 9 8 8 6 10 11 10 6 5 6 5 7 5 8 7 9 7 6 6 7 7 11 10 16 14 12 13 24 16 20 19 14 21 12 13 13 13 9 9 12 8 10 11 10 8 13 17 15 13 11 10
20 20 20 21 21 22 22 23 25 25 26 27 28 28 27 25 23 19 16 16 8 4 4 3 4 8 4 4 10 12 7 9 11 11 12 11 8 5 4 4 5 5 4 4 5 7 6 7 2 6 5 6 4 6 6 8 8 8 7 11 14 19 15 14 11 26 20 19 17 16 16 15 6 9 12 7 8 7 10 11 12 11 9 14 14 13 14 14
20 20 21 21 22 23 23 24 24 24 26 27 26 25 25 27 24 13 8 6 4 5 7 7 5 3 12 10 9 10 10 9 2 5 4 0 4 4 4 4 3 6 5 5 5 8 4 6 4 4 3 7 8 7 10 11 11 10 10 11 15 18 22 18 14 14 27 21 15 17 18 19 18 6 9 12 13 10 10 10 12 14 9 12 13 13 14 14
21 22 22 22 22 23 24 23 25 25 24 25 26 24 25 22 4 2 4 4 3 1 2 4 5 5 3 1 10 10 8 7 3 3 2 4 3 2 2 3 5 5 4 4 4 9 4 3 4 4 8 7 11 12 12 12 12 14 14 12 12 15 19 20 17 9 19 22 18 14 16 20 19 17 13 11 19 9 11 9 5 6 16 15 12 14 13 13
22 22 22 22 23 23 24 24 25 25 23 16 14 12 6 8 3 1 1 4 7 8 11 10 10 9 13 14 10 3 8 4 1 6 4 3 3 2 5 3 6 7 6 6 5 10 4 8 8 9 10 13 13 16 17 15 15 14 14 15 15 15 14 14 14 13 8 15 20 16 19 20 17 18 21 16 6 8 8 9 10 12 6 6 10 11 15 15
22 22 22 22 23 23 23 25 24 22 22 12 9 8 6 10 10 8 10 11 12 14 15 15 17 17 16 15 14 14 10 7 4 2 8 4 8 3 3 4 5 6 7 9 9 2 11 8 10 11 13 14 14 14 16 18 16 17 14 13 15 15 13 13 15 17 18 12 11 21 18 19 17 10 13 13 13 9 8 6 6 8 10 10 10 9 14 11
22 22 22 22 23 23 24 23 24 23 21 7 5 5 6 8 6 7 9 10 14 13 14 17 14 17 13 15 15 13 11 10 8 9 8 1 4 4 1 6 6 8 6 8 7 8 6 11 11 14 14 13 14 14 14 18 19 18 14 11 11 13 11 10 15 16 14 14 12 10 20 19 15 15 14 13 13 12 9 9 7 10 8 9 12 11 10 12
22 22 22 22 23 23 22 23 23 24 7 4 3 6 6 7 5 3 3 8 14 10 10 11 13 13 14 11 12 9 13 10 9 7 7 6 6 6 3 5 5 7 8 8 8 7 9 7 14 14 12 13 14 16 16 15 17 15 13 11 10 6 11 10 11 18 19 15 11 14 13 12 16 13 19 17 12 12 8 10 9 9 11 8 7 8 14 17
22 22 22 21 22 23 23 21 23 13 2 4 7 5 6 7 8 7 6 5 10 16 7 11 12 9 10 11 5 14 13 8 7 8 7 5 5 4 6 7 8 7 9 9 12 9 10 10 10 15 14 14 15 15 17 13 11 14 17 13 10 13 12 10 11 8 11 17 18 17 14 9 8 12 10 13 15 16 11 9 8 9 11 10 8 10 17 18
21 21 21 21 22 25 23 23 8 5 9 6 3 7 8 8 5 8 6 5 4 8 6 6 6 8 11 9 2 3 6 7 9 6 4 4 6 4 6 5 6 10 11 11 12 13 13 14 13 12 17 16 15 14 16 13 10 10 16 19 16 15 17 14 10 15 13 15 16 15 10 14 8 14 17 10 13 18 16 14 13 12 9 13 15 13 16 19
21 21 22 21 23 22 25 8 2 8 9 2 5 7 8 7 5 5 3 3 6 5 3 2 3 2 4 5 6 1 6 5 4 6 7 7 6 5 1 5 5 9 11 13 11 7 9 12 15 16 13 17 17 15 12 13 11 10 10 16 22 22 20 14 16 12 10 17 16 15 14 8 5 10 10 12 11 15 15 17 15 13 14 12 12 10 15 17
20 21 22 22 21 19 8 3 5 9 4 2 7 7 7 8 5 5 1 2 4 2 4 3 1 1 2 2 2 4 5 5 3 1 2 2 8 8 9 7 4 6 6 4 3 8 10 13 13 16 16 13 15 13 13 13 11 11 6 14 19 25 22 19 17 12 7 4 14 16 10 8 6 9 12 13 11 17 16 15 15 16 17 17 14 11 14 17
23 23 23 22 21 13 4 6 7 5 4 4 5 5 5 6 5 1 2 2 3 4 6 3 3 2 0 4 3 5 5 5 7 2 0 4 5 1 8 7 9 9 7 6 10 6 11 12 14 14 15 12 10 11 11 15 12 7 11 14 16 20 20 21 16 11 10 8 9 16 17 12 7 5 15 19 18 12 18 22 19 15 16 18 18 15 15 18
24 24 23 21 20 21 6 5 3 4 3 6 4 3 3 3 3 3 0 1 3 3 6 4 6 1 9 10 8 5 7 6 9 4 6 1 1 4 4 9 10 10 10 10 9 9 10 14 11 13 10 11 11 10 13 14 13 12 13 12 12 13 16 19 13 13 11 8 9 11 20 13 12 8 7 17 22 20 18 23 23 15 17 17 16 15 15 17
26 22 20 19 13 5 2 2 6 6 8 8 4 5 4 3 1 1 0 2 2 4 4 3 5 7 8 11 8 9 10 7 8 8 9 8 4 4 7 7 7 9 10 10 13 13 15 16 17 10 11 10 9 12 11 13 14 7 12 15 11 12 14 16 13 11 6 8 11 14 17 18 12 11 12 9 15 19 10 11 15 12 17 18 17 15 16 17
24 22 18 13 3 4 3 4 6 6 3 4 5 5 3 0 1 1 2 3 4 2 4 2 3 6 8 8 8 6 10 11 8 6 9 10 9 6 6 5 4 5 4 7 9 13 15 16 13 9 11 6 10 13 13 12 12 13 8 11 9 11 12 14 12 9 7 7 8 18 18 17 16 9 14 18 10 12 16 14 17 16 16 18 17 15 18 19
23 20 17 8 6 5 3 2 5 4 4 4 4 4 3 3 2 2 2 1 6 3 3 6 6 5 10 11 10 9 7 5 6 5 8 3 3 2 6 6 4 5 6 5 7 8 12 12 12 17 13 13 8 12 10 12 12 13 11 10 11 6 7 9 9 11 8 9 9 9 20 18 16 6 11 19 22 14 11 13 19 21 17 17 19 17 17 18
23 19 18 9 6 4 7 10 4 4 4 3 4 3 2 1 4 1 2 3 1 2 2 2 9 13 13 13 10 10 6 8 3 7 4 2 4 7 13 9 6 6 3 5 8 4 7 11 13 12 12 11 12 9 8 9 11 12 12 10 10 9 8 7 10 5 5 12 14 13 7 13 6 11 10 15 22 20 15 12 11 11 13 15 18 17 18 18
23 19 8 5 5 7 7 3 3 3 4 3 2 4 2 2 3 5 5 2 4 6 8 5 13 14 10 6 6 3 4 4 2 4 8 4 6 7 7 10 10 8 7 3 5 6 5 7 9 10 7 7 9 6 6 5 6 11 9 12 8 7 6 7 7 13 11 7 10 14 9 3 11 3 10 9 8 8 9 10 8 9 12 14 18 20 23 22
27 18 6 4 4 7 6 4 0 3 2 2 2 1 3 2 2 3 4 2 3 7 8 9 10 9 8 4 2 1 5 2 3 2 4 4 4 5 4 6 9 9 6 5 4 0 10 8 8 8 12 6 9 7 7 9 7 7 9 9 12 11 4 4 4 7 11 11 8 9 5 3 7 5 10 7 12 11 7 10 10 15 8 13 16 20 20 19
16 6 3 2 3 6 6 3 3 2 3 2 2 1 2 2 3 4 2 3 5 4 10 13 5 5 3 5 4 11 6 4 6 6 2 7 7 6 9 5 4 8 7 7 2 5 3 7 8 13 14 14 8 6 9 7 5 2 10 13 10 7 10 6 6 3 6 10 10 2 4 10 3 2 5 9 6 9 13 10 12 14 13 15 15 17 16 17
7 8 2 3 4 0 2 3 3 0 1 1 2 2 2 4 1 2 2 1 6 4 5 8 4 5 3 4 6 10 5 4 4 2 2 3 4 9 8 8 12 14 17 6 2 2 4 6 12 10 13 10 12 11 10 8 8 6 4 8 8 10 11 8 4 4 3 9 8 7 7 5 11 7 4 6 6 6 6 9 12 16 16 15 18 18 17 17
7 6 7 5 2 4 1 3 1 1 1 2 1 7 3 5 3 5 4 4 3 0 2 1 3 4 2 5 7 9 6 6 4 4 4 6 3 1 4 5 12 14 18 14 4 1 3 4 8 11 14 13 11 10 13 14 10 7 11 5 9 8 14 8 5 6 5 4 5 13 11 8 9 5 4 8 8 9 11 7 10 12 16 19 19 20 19 20
4 2 5 2 6 3 6 1 1 1 1 2 3 5 2 4 5 7 2 2 2 2 2 2 2 0 4 7 7 11 9 5 7 1 2 2 2 3 5 5 6 10 13 15 5 4 1 1 6 6 10 7 4 7 7 9 6 14 12 14 15 9 6 9 5 2 1 2 6 10 19 7 5 7 7 8 10 12 12 8 12 15 14 15 17 18 18 17
1 2 2 3 6 6 4 1 1 0 0 2 2 4 4 11 10 5 5 2 1 2 3 4 3 5 6 8 9 8 9 6 7 3 1 4 6 4 5 7 3 4 4 13 5 6 2 1 4 9 8 1 4 2 10 8 6 7 8 8 6 6 0 2 2 6 3 2 4 2 11 5 4 6 9 8 9 17 10 12 13 11 14 16 16 18 17 16
4 2 1 1 5 6 5 2 1 2 2 4 6 9 10 7 6 3 5 6 4 6 6 4 5 3 5 9 8 7 8 4 1 1 5 4 5 3 6 7 5 4 4 11 8 6 2 4 6 5 7 1 6 6 10 11 9 8 5 5 5 6 6 10 6 6 9 6 3 4 4 2 6 2 5 10 7 9 9 9 8 7 15 19 17 17 16 14
2 2 0 3 5 5 4 1 2 2 1 5 3 3 8 10 8 10 3 6 7 1 5 5 8 8 8 9 9 9 7 8 7 5 7 7 6 8 3 10 6 5 5 4 7 11 8 3 2 5 5 6 10 11 9 9 9 11 7 7 10 7 2 2 2 7 8 6 3 4 1 7 7 8 6 7 9 11 10 9 8 8 12 13 16 18 17 18
2 4 1 5 4 3 2 5 3 3 4 4 6 8 6 6 8 7 4 5 3 4 3 5 6 5 8 6 8 9 11 8 11 5 6 6 9 14 7 9 9 8 8 2 6 6 6 1 2 5 7 9 10 7 6 8 6 10 13 13 11 8 8 8 5 8 7 3 4 1 3 2 3 6 12 14 10 11 11 10 11 9 10 14 15 16 14 13
4 6 2 2 3 3 0 2 4 5 5 5 5 8 6 6 8 9 3 3 5 3 3 2 7 7 9 7 8 11 8 3 5 10 8 9 6 14 14 12 10 8 8 6 4 4 0 1 1 3 4 3 6 6 4 3 9 7 5 8 13 16 11 11 8 2 3 4 5 1 5 4 8 5 5 12 9 8 6 7 12 9 7 11 15 14 13 15
6 4 4 1 3 1 1 2 3 6 6 7 9 12 10 3 4 10 8 7 4 3 2 5 6 4 6 8 11 12 10 7 6 10 9 7 4 9 18 11 16 8 8 8 13 9 3 4 3 1 1 2 1 3 3 3 7 4 7 13 14 15 14 5 5 2 3 5 5 3 6 7 4 6 4 8 7 8 6 5 4 4 8 10 10 11 12 17
2 3 2 2 1 3 5 5 5 4 6 6 7 6 4 9 8 8 8 5 7 2 3 1 3 2 6 9 8 6 8 8 7 5 9 8 7 7 3 12 12 11 11 15 12 9 3 4 3 4 3 3 5 7 6 8 6 6 10 13 12 11 11 9 3 4 6 2 5 3 6 5 3 1 4 3 9 10 8 9 8 6 4 7 11 13 14 15
2 1 4 5 6 3 4 3 2 0 2 4 6 3 9 9 11 5 7 3 4 5 0 1 3 3 4 6 6 7 7 10 9 9 9 10 8 8 14 14 10 12 16 9 10 6 3 2 6 6 6 7 8 9 10 7 10 13 11 10 14 10 9 8 6 5 7 5 8 2 6 2 6 3 6 6 4 5 10 8 10 9 6 9 7 14 17 18
2 2 4 2 2 5 9 7 7 11 14 8 7 5 9 13 9 9 7 7 5 3 1 0 1 5 5 1 4 3 6 10 10 5 6 4 10 10 10 12 7 10 16 6 9 3 2 2 5 5 3 6 8 9 10 11 10 9 12 11 15 14 7 6 7 8 4 4 6 6 2 1 3 5 4 7 5 2 3 13 10 11 10 11 12 11 15 19
3 3 1 8 5 6 5 13 15 12 15 11 5 7 11 8 12 9 9 10 2 1 4 3 5 4 6 6 4 4 7 6 4 3 3 4 4 7 4 10 7 10 7 1 3 3 3 1 2 1 5 6 7 8 9 9 9 12 12 13 16 15 12 7 6 5 9 6 6 9 8 3 3 2 3 3 6 3 0 3 7 12 14 14 14 11 10 11
5 6 5 5 3 8 8 7 7 9 10 12 4 4 6 9 13 14 11 9 9 7 6 2 10 7 1 6 6 5 7 6 8 5 2 0 7 1 5 3 4 8 3 4 1 2 1 1 5 5 4 5 6 8 10 9 10 10 14 15 16 14 13 13 8 5 6 5 4 5 5 3 4 4 2 4 7 9 7 5 7 9 10 14 15 13 10 9
3 4 4 7 11 5 7 7 6 8 8 5 7 9 9 12 12 14 11 8 6 11 1 5 3 8 3 6 8 11 17 12 11 13 11 5 7 1 1 4 9 10 12 4 2 1 2 1 2 2 4 6 6 9 7 11 11 10 11 13 14 13 11 6 7 3 2 0 4 3 5 1 3 5 4 9 10 9 9 5 4 7 11 11 12 12 13 10
3 3 5 4 5 6 8 7 8 7 4 6 8 10 8 14 12 15 13 3 9 11 13 7 2 3 4 3 9 15 17 12 13 13 10 7 6 6 7 9 11 9 5 5 0 4 4 1 1 2 3 2 6 6 10 9 10 11 11 12 12 10 7 5 6 8 3 3 2 1 4 7 6 2 5 6 8 9 7 5 4 2 6 12 12 9 10 13
Wind_Direction
5 2 360 357 354 353 353 351 351 348 347 346 345 342 341 341 339 337 337 337 335 333 332 330 331 329 328 326 329 330 329 324 315 312 305 265 147 174 205 281 312 340 337 332 315 307 301 288 247 234 246 234 208 224 220 241 232 253 234 224 237 222 214 181 215 211 245 254 261 256 250 260 252 248 284 305 288 192 129 121 110 92 100 112 121 128 133 137
359 358 357 357 354 352 351 350 348 346 345 342 340 338 337 336 335 335 335 334 333 331 330 331 329 328 326 328 327 330 329 314 298 294 259 190 141 166 168 263 332 359 342 322 307 297 286 275 261 222 211 230 180 228 174 211 197 216 238 232 237 210 219 182 201 211 221 223 241 250 259 333 303 325 195 271 276 234 130 125 119 109 105 114 123 131 136 143
358 357 356 354 353 352 350 347 347 345 343 341 340 339 336 334 333 333 331 331 331 331 330 330 328 326 327 327 328 329 325 308 298 266 288 135 151 172 186 22 326 342 353 303 309 301 292 297 307 319 245 227 197 220 186 206 203 214 232 235 236 229 201 195 212 212 212 216 229 238 258 294 300 290 317 273 279 270 221 120 119 123 131 131 134 138 145 146
356 355 354 353 351 350 349 346 343 342 340 337 336 335 334 333 333 332 331 330 329 330 329 328 328 326 324 325 328 327 310 299 273 102 195 209 172 179 162 208 325 305 298 265 263 268 280 279 287 276 282 234 203 209 206 194 211 194 226 233 232 217 241 195 212 240 219 203 206 228 217 268 301 293 263 268 257 264 240 174 134 144 135 135 145 148 148 145
353 351 349 349 346 343 342 340 338 337 337 336 334 333 331 329 329 330 329 328 329 328 327 327 326 325 325 323 325 324 308 353 52 115 139 180 180 166 177 264 264 262 291 302 299 278 262 272 278 278 246 244 217 201 217 212 207 225 230 234 235 229 227 222 215 227 233 245 240 187 171 206 257 264 256 230 229 236 200 170 136 152 147 150 156 154 149 150
348 345 342 343 343 341 342 342 339 338 336 335 335 333 331 329 326 325 326 324 325 325 325 325 326 326 323 323 314 309 308 304 150 150 203 189 199 195 205 228 246 252 271 286 283 290 282 258 244 253 251 223 214 210 202 218 192 228 234 237 226 233 249 218 237 228 225 191 238 232 170 179 211 242 241 226 245 234 203 170 167 148 157 152 141 143 148 156
347 346 347 346 346 345 343 341 339 335 333 332 331 330 330 329 324 323 323 324 321 323 322 323 323 326 326 323 300 250 224 275 333 147 192 195 210 201 216 231 251 257 247 265 266 255 248 252 245 241 258 262 240 230 215 205 215 229 232 222 229 225 230 242 254 257 207 202 216 229 210 242 257 233 223 227 234 233 203 165 180 152 153 143 149 155 157 163
350 350 349 348 347 345 343 340 338 335 330 328 327 326 326 326 325 322 319 320 320 319 320 321 322 323 331 332 339 352 281 259 242 178 190 194 208 216 229 243 234 250 259 260 271 266 259 251 246 249 250 245 219 230 223 223 211 223 235 223 221 224 233 230 244 257 257 247 230 246 233 203 240 267 275 265 230 218 203 173 125 148 145 149 147 154 155 162
351 350 350 348 346 344 342 341 337 336 334 330 327 327 323 322 320 319 317 316 316 316 316 317 321 320 325 301 297 303 278 187 160 186 188 186 210 218 209 256 235 255 277 280 260 260 267 269 259 236 259 240 258 262 235 227 222 220 225 226 231 218 219 231 243 237 253 252 244 246 270 219 195 227 261 258 259 205 210 210 156 152 149 153 160 160 157 161
350 349 347 347 345 342 341 337 333 330 327 326 325 323 322 318 315 314 313 311 311 314 315 313 313 324 320 314 296 248 258 158 174 166 185 192 199 213 195 252 265 259 261 256 266 263 256 267 273 281 261 267 268 256 257 228 237 216 228 225 221 237 239 209 227 241 224 248 244 247 238 253 204 190 222 255 256 241 226 218 179 158 161 159 164 156 160 162
348 345 343 341 340 336 334 332 329 327 326 322 319 316 313 312 310 309 307 305 305 306 308 307 308 321 315 310 278 236 285 237 21 2 271 270 249 236 240 267 306 299 279 279 274 274 283 280 279 281 282 263 242 256 250 257 254 247 240 227 234 226 231 246 228 227 236 242 251 243 248 244 236 203 214 210 216 241 246 218 198 155 158 158 153 157 170 170
344 342 342 339 337 334 333 331 328 325 323 323 319 315 311 308 306 303 301 299 297 300 303 303 311 301 284 274 244 232 288 307 314 317 302 299 308 305 302 292 279 265 276 281 284 287 270 280 287 277 261 354 257 286 269 268 260 256 243 245 226 230 236 220 234 241 216 222 232 251 264 252 238 239 223 211 214 203 221 231 218 181 159 161 158 160 168 175
340 338 336 334 334 334 331 330 328 325 323 321 320 316 312 307 305 301 297 296 292 293 297 303 305 307 294 282 245 242 259 273 290 291 283 272 261 248 244 240 254 261 264 268 268 271 289 292 297 286 275 268 280 258 334 308 291 261 250 241 242 239 231 225 226 230 237 221 209 213 243 245 245 241 239 225 183 193 216 227 186 213 142 160 159 164 169 165
338 337 335 333 332 332 331 328 327 325 323 321 319 315 311 307 304 299 294 289 290 289 291 293 291 274 261 254 290 262 247 243 255 267 276 286 281 275 277 259 237 239 228 240 246 258 276 284 287 289 293 269 277 324 270 290 286 246 241 243 228 226 235 217 220 221 228 224 227 201 232 233 235 241 240 236 213 180 206 225 203 196 125 163 157 158 159 168
339 337 335 332 333 331 329 328 325 325 324 321 319 315 310 305 299 294 290 288 285 283 281 290 264 258 240 272 250 253 246 254 273 265 261 260 256 259 249 248 251 236 222 224 239 235 237 253 272 273 266 308 291 268 284 277 284 272 212 224 222 224 222 230 225 216 223 216 216 224 235 236 223 227 232 229 227 193 196 201 207 158 135 153 153 153 157 167
337 334 332 333 330 329 327 326 324 324 323 322 319 314 308 299 292 288 283 278 280 282 279 263 226 213 292 296 289 228 219 219 239 243 246 245 251 258 269 261 247 231 219 219 229 239 233 245 236 238 273 269 262 269 275 283 258 254 240 203 217 217 224 221 222 233 220 223 213 213 232 239 233 229 234 225 213 188 187 197 205 168 150 158 157 158 160 154
336 334 333 331 331 328 327 326 325 325 325 323 320 311 304 292 284 277 276 278 283 247 198 223 200 189 265 239 337 322 274 225 215 219 217 210 234 263 274 280 268 287 287 286 218 203 220 234 193 260 233 251 247 239 242 243 253 246 227 220 207 216 213 228 200 220 232 218 216 213 226 234 236 218 230 246 235 182 202 199 190 168 163 154 160 160 161 160
336 333 332 330 330 328 327 326 326 325 325 323 318 306 300 293 285 287 290 251 199 221 219 218 265 242 261 256 281 256 259 270 246 160 139 114 213 211 245 264 314 309 312 286 254 261 174 222 185 233 207 220 236 231 218 221 216 219 214 212 210 215 217 215 211 197 220 227 225 212 227 239 241 227 209 215 244 220 199 200 181 171 173 162 159 168 165 161
334 333 332 331 329 328 328 327 325 325 326 323 313 300 286 278 279 151 245 237 169 243 215 184 195 172 221 59 221 236 258 249 154 63 191 202 221 249 274 296 308 314 263 234 239 216 208 251 202 215 233 212 217 227 229 233 231 232 228 226 219 213 213 218 212 221 201 225 227 224 221 226 233 236 230 220 223 185 187 195 239 219 176 175 168 164 166 166
333 332 331 330 329 328 328 326 325 323 327 326 325 326 331 18 23 46 209 284 263 269 272 276 211 252 289 283 285 259 269 285 271 172 229 223 327 256 231 214 216 218 245 247 241 228 180 211 214 211 216 221 219 221 233 240 245 254 249 240 231 224 228 220 217 216 214 211 228 220 228 224 222 222 228 220 217 195 204 207 189 185 206 185 168 154 170 167
332 332 331 329 329 328 328 325 323 321 323 318 307 316 18 358 357 339 336 296 267 258 263 260 261 260 260 287 292 329 329 306 305 270 208 171 204 195 199 207 226 246 218 230 246 250 199 221 222 222 226 228 232 224 227 243 247 249 259 253 238 230 228 216 213 204 215 225 215 220 226 226 225 211 216 218 236 230 210 214 185 195 178 177 177 166 167 159
332 330 330 329 328 329 326 325 319 318 320 290 274 312 335 358 331 308 334 309 298 266 253 258 260 263 263 269 284 293 285 281 288 297 300 15 231 200 151 222 209 233 227 223 228 256 241 217 220 224 226 231 239 247 232 230 238 248 250 257 268 240 235 224 214 202 215 227 238 212 222 235 232 229 227 222 223 240 227 185 156 156 186 187 181 176 143 126
332 331 328 329 330 328 327 324 320 316 322 311 281 317 349 306 304 350 348 285 279 273 254 240 235 241 263 263 261 264 263 252 259 233 235 196 252 237 261 232 239 253 243 232 220 223 247 238 225 225 225 228 233 239 246 233 232 238 246 250 247 275 222 226 224 198 205 217 228 232 228 233 234 222 221 217 227 234 213 184 167 148 160 173 177 152 142 145
332 330 330 330 330 328 323 323 319 307 255 288 301 0 330 322 336 0 335 300 307 309 241 232 231 236 240 241 216 228 241 255 233 238 238 255 218 183 228 260 283 275 254 246 243 235 229 244 231 220 228 227 232 230 235 237 231 230 243 251 253 249 254 235 229 230 220 229 218 226 237 246 203 202 216 217 219 223 204 190 193 179 168 179 182 137 148 153
331 330 329 328 329 327 321 320 309 338 313 299 343 9 333 322 14 17 337 290 250 255 242 229 208 228 239 232 163 221 212 237 240 263 272 207 236 206 222 200 231 246 260 258 259 256 252 240 246 228 215 228 233 234 230 233 241 236 233 241 250 258 256 257 255 207 208 233 227 195 219 232 205 214 212 203 220 219 203 192 192 197 201 182 188 166 161 158
330 330 327 327 327 329 318 305 326 321 306 306 5 353 320 336 26 347 54 306 303 267 251 127 138 228 11 211 142 215 336 272 245 256 216 237 264 269 278 232 178 242 233 253 259 255 248 242 241 246 225 216 227 234 233 224 237 234 228 229 244 250 260 267 258 223 203 206 219 214 218 224 217 211 217 226 206 212 213 206 195 194 199 208 204 166 162 160
329 328 327 324 326 329 337 44 307 292 314 13 349 327 335 331 17 360 13 220 264 8 329 23 264 334 86 316 175 108 239 297 340 253 271 165 237 156 230 254 265 240 279 299 253 234 244 246 234 238 245 230 216 226 228 229 225 238 230 227 235 240 249 260 263 263 252 218 211 224 210 225 242 221 217 225 215 214 216 219 213 203 200 202 201 185 164 165
328 327 326 325 321 321 251 299 302 310 319 301 303 325 336 320 351 347 101 358 346 11 10 350 22 318 181 306 248 234 247 266 268 272 360 18 19 213 193 218 241 253 229 234 255 277 263 243 236 234 237 241 232 215 219 223 235 230 226 233 229 235 244 252 257 261 265 227 223 200 211 233 218 234 205 217 232 216 216 217 217 205 204 200 198 191 163 169
330 328 326 322 322 303 266 211 281 272 265 297 291 300 303 323 359 60 292 254 353 33 195 350 277 286 345 314 276 262 271 237 248 162 176 148 264 320 240 217 233 261 266 250 254 260 257 264 243 245 238 234 242 240 215 216 229 232 247 245 236 240 244 250 250 252 250 263 231 205 202 226 229 210 219 203 217 223 211 211 214 199 196 194 195 191 163 170
329 326 324 323 323 290 148 235 246 259 282 275 343 338 326 347 342 300 238 266 30 307 16 293 8 299 328 318 306 322 306 302 295 292 278 285 236 232 274 306 250 228 248 251 258 263 277 288 298 270 238 237 237 244 241 215 226 237 223 247 245 232 239 248 244 237 264 244 247 223 205 208 229 214 207 204 209 214 199 205 205 188 194 190 191 175 164 169
326 324 321 324 287 311 315 229 224 249 275 352 346 319 321 215 310 299 326 267 305 305 312 100 300 249 281 296 301 270 271 270 288 325 295 254 239 250 281 301 261 273 251 251 249 254 261 270 275 273 279 256 226 242 243 240 217 220 218 226 238 244 233 235 238 226 223 248 240 223 218 198 221 208 209 218 221 208 198 183 198 200 187 191 190 174 167 164
326 321 314 311 253 288 269 284 331 311 353 332 325 332 15 340 163 73 253 156 280 317 322 306 296 296 301 294 286 282 265 231 202 206 224 203 306 295 213 219 164 213 256 228 248 255 265 264 277 275 271 275 243 238 237 232 219 214 219 223 220 219 200 218 238 227 212 225 240 249 214 227 228 209 197 205 216 216 200 181 187 196 193 188 183 165 166 164
325 317 309 282 256 233 244 252 297 332 312 323 339 308 350 340 321 232 269 2 266 41 317 346 308 314 300 297 274 278 276 273 172 212 198 226 214 226 243 223 224 186 217 197 249 248 261 257 254 266 262 249 256 231 217 234 216 208 214 213 216 214 207 209 225 252 232 235 233 244 227 243 232 235 197 200 202 198 173 170 164 177 196 187 182 163 162 167
321 318 309 265 258 236 249 285 308 333 339 323 340 320 188 277 249 290 316 348 298 355 310 322 315 298 287 265 286 29 317 270 266 213 169 227 202 232 221 226 244 242 221 268 204 214 273 295 259 252 264 249 254 235 236 250 211 210 211 221 222 229 197 207 204 216 218 230 225 229 252 203 215 259 186 185 189 177 167 162 178 198 180 188 182 173 168 169
317 302 254 256 242 259 257 243 42 3 335 1 328 201 330 273 283 326 321 351 332 316 301 317 298 304 296 302 321 60 163 307 278 267 155 220 211 213 216 221 227 245 233 245 214 49 246 256 269 244 247 240 242 250 261 260 286 242 211 226 229 221 252 242 188 203 219 219 233 221 219 162 211 225 189 170 157 168 181 182 181 207 194 175 180 180 171 168
317 320 153 234 202 213 207 187 115 265 30 317 323 309 257 306 282 9 307 17 323 321 318 317 322 310 326 298 319 337 179 176 298 318 211 199 228 218 211 210 205 237 227 217 132 236 243 247 249 260 247 246 254 250 241 232 232 256 212 221 226 233 245 266 279 239 175 222 237 257 234 258 315 262 175 154 152 180 176 206 205 207 216 167 180 179 172 172
318 323 235 203 204 122 93 120 133 243 200 310 357 308 304 317 321 348 346 23 279 322 317 345 330 351 327 315 327 313 0 314 288 262 269 6 309 230 219 217 194 207 231 211 214 159 167 281 297 308 282 224 234 252 270 256 240 270 283 230 226 234 251 241 193 229 216 203 214 214 235 233 220 254 250 179 189 212 213 210 197 217 218 168 179 178 171 173
314 297 294 247 152 120 157 99 113 177 153 277 230 254 271 271 256 229 274 298 323 251 291 306 271 258 311 328 304 312 331 293 267 283 254 156 268 132 257 241 220 224 197 199 132 297 77 295 278 271 283 255 208 234 257 269 273 253 247 280 227 184 223 233 253 221 215 212 180 223 233 240 199 225 213 199 196 227 225 211 222 220 194 186 180 176 172 169
264 283 304 161 114 79 84 101 205 150 338 271 263 308 219 244 296 292 155 235 226 261 265 222 196 292 333 304 288 300 316 287 315 284 35 269 280 200 216 250 228 218 189 175 154 143 101 90 291 285 283 7 316 154 235 260 276 251 256 269 274 276 221 210 207 43 15 189 190 206 212 243 204 198 182 215 203 217 224 223 229 230 169 172 170 167 167 164
239 298 246 136 122 100 104 191 107 8 358 282 276 255 304 294 284 260 136 169 298 114 238 258 231 290 291 269 311 298 301 319 334 319 19 240 237 240 233 234 243 200 255 141 118 99 66 71 274 300 332 140 260 215 223 217 230 248 236 251 254 249 109 245 185 202 172 223 176 180 198 230 260 204 186 215 206 219 195 204 213 196 167 163 164 163 164 163
305 262 275 262 107 131 108 134 237 208 241 256 258 262 282 285 296 306 167 211 206 199 224 256 286 274 290 306 294 297 298 294 242 244 214 271 218 301 220 233 200 209 178 134 156 128 137 183 230 281 296 267 244 249 223 215 228 260 258 246 254 235 199 190 222 226 238 229 208 208 239 256 250 252 196 231 217 209 185 193 176 176 171 160 161 164 160 163
320 332 168 120 137 139 152 267 232 211 226 278 259 286 293 303 292 299 131 227 173 271 229 249 253 255 267 258 270 288 301 300 277 256 224 215 192 194 243 211 215 182 191 183 177 184 178 185 206 257 234 261 278 285 284 242 250 261 256 254 252 251 240 141 182 257 253 271 265 161 169 273 238 221 217 230 213 209 191 171 162 158 158 158 162 165 164 161
270 289 118 129 167 163 278 256 208 156 207 231 260 266 288 295 284 310 11 199 206 165 254 223 243 270 258 262 293 301 306 296 288 257 296 213 222 207 226 195 200 221 199 80 191 134 161 62 301 269 265 256 264 274 281 259 259 291 274 265 264 246 204 235 201 193 223 278 265 8 216 255 284 228 218 227 209 190 186 163 159 158 152 164 166 168 161 151
301 288 249 175 150 183 159 282 319 294 287 288 282 272 281 277 296 313 299 252 163 196 205 190 304 275 301 294 288 283 313 338 297 312 316 310 301 212 207 196 196 212 149 199 144 218 164 326 18 312 331 354 352 340 303 234 240 224 233 249 249 254 235 213 226 97 276 255 220 79 209 252 261 261 219 182 180 164 143 161 152 156 155 162 169 170 162 151
281 230 212 155 244 211 217 252 299 304 295 308 310 311 318 294 282 280 286 297 122 169 172 223 214 309 295 300 286 279 277 250 294 289 282 308 262 267 187 214 197 213 182 149 155 160 117 180 148 284 7 101 171 262 248 236 230 260 259 258 257 238 242 250 226 146 191 283 273 243 265 252 260 315 339 147 127 121 100 85 77 141 171 161 167 158 148 148
343 350 320 158 207 236 260 263 278 257 311 312 314 285 274 294 299 281 277 278 144 171 219 350 296 274 265 334 315 298 297 293 282 309 327 307 335 340 350 214 184 213 160 148 165 142 152 180 155 178 160 203 255 262 288 315 302 248 259 270 277 252 236 243 119 125 204 324 293 272 221 265 306 305 343 99 138 118 94 88 85 75 85 142 149 142 144 142
288 273 358 333 311 216 246 241 256 348 268 321 307 328 308 301 300 311 318 314 177 163 294 210 317 360 297 12 327 313 291 295 291 294 300 322 337 328 321 302 211 206 151 151 172 156 134 176 213 206 220 254 285 300 302 306 290 287 276 279 280 256 231 214 215 224 188 169 259 266 258 319 288 306 347 359 354 99 116 103 95 75 77 106 123 141 139 137
333 347 35 38 254 308 341 326 357 313 295 298 270 283 290 300 316 328 341 6 107 80 43 332 89 242 274 237 298 287 309 303 299 300 344 342 336 342 331 326 298 152 145 186 184 171 142 294 215 197 293 303 286 299 288 277 277 295 299 282 274 275 262 207 202 223 232 216 220 269 300 256 242 39 41 28 31 103 148 128 125 110 85 88 105 125 137 142
1 311 294 33 355 309 302 278 292 282 286 285 266 293 284 308 334 346 341 327 359 228 151 273 294 278 218 213 222 274 302 326 316 333 357 325 350 333 317 326 323 138 174 272 198 161 102 235 141 360 326 305 310 309 299 296 300 306 306 305 281 273 275 260 251 253 254 237 170 208 236 271 329 49 47 1 20 28 171 105 104 108 107 95 102 115 127 142
24 350 331 336 267 285 281 293 292 294 293 292 272 290 331 342 338 335 337 336 325 328 120 260 259 316 262 217 215 250 249 240 260 282 316 155 310 259 304 237 304 327 334 229 76 18 93 321 63 40 21 322 319 313 304 308 315 307 306 308 301 275 259 259 255 238 241 229 154 157 58 14 271 295 58 34 21 356 29 40 95 109 109 114 117 115 116 139
339 356 327 316 318 306 311 308 303 304 301 334 356 335 339 345 335 333 320 314 295 316 305 281 352 326 276 225 229 245 255 261 260 245 247 242 251 140 85 289 329 313 321 304 107 80 90 244 99 63 31 328 334 325 340 350 335 313 299 301 303 289 252 238 248 205 169 139 38 59 80 354 284 287 4 32 14 10 344 338 16 108 116 119 131 139 137 134
349 324 314 299 282 294 308 298 308 316 316 354 336 336 337 330 327 328 322 280 329 325 324 321 168 263 237 197 234 237 245 239 244 249 252 249 216 244 211 261 281 288 290 300 16 129 152 101 55 73 45 283 313 353 358 346 351 322 280 264 269 280 272 285 281 279 251 110 57 104 186 227 167 173 55 23 20 346 327 330 337 37 121 129 140 148 152 156